{"data":{"norad_id":50165,"intl_designator":"2021-125K","name":"STARLINK-3298","alt_names":[],"object_type":"PAYLOAD","status":"ACTIVE","operator":null,"country":"US","launch_date":"2021-12-18","launch_site_code":"AFWTR","launch_vehicle":null,"mission":null,"orbit_class":"UNKNOWN","rcs_meters":null,"size_class":null,"mass_kg":null,"dimensions":null,"purposes":["comms"],"wikipedia_slug":null,"has_3d_model":false,"image_url":null,"decayed_at":null,"tle_current":{"epoch":"2026-05-24T14:26:43.002240Z","epoch_age_seconds":109515,"freshness":"FRESH","line1":"1 50165U 21125K   26144.60188660  .00000259  00000+0  34364-4 0  9999","line2":"2 50165  53.2155 278.3360 0001265  91.4223 268.6914 15.08837804247962","mean_motion":15.08837804,"eccentricity":0.0001265,"inclination_deg":53.2155,"raan_deg":278.336,"arg_perigee_deg":91.4223,"mean_anomaly_deg":268.6914,"bstar":3.4364e-5,"rev_number":24796,"period_min":95.437693579952,"perigee_km":538.87498854741,"apogee_km":540.62521398403,"semimajor_km":6917.8871012657,"source":"CELESTRAK","updated_at":"2026-05-25T13:38:16.842649Z"}}}